Flag for New Zealand Weather past 2 weeks in Wellington, New Zealand

Now
46 °F

Partly cloudy.


Feels Like: 39 °F
Forecast: 44 / 48 °F
Wind: 20 mph from South

Location: Wellington Airport

Current Time: Jul 30, 2015 at 6:32:18 AM

Latest Report: Jul 30, 2015 at 6:00 AM


Visibility: N/A

Pressure: 30.21 "Hg

Humidity: 71%

Dew point: 37 °F

Location of WellingtonLocation

Historic Weather in Wellington — Graph

°F

Wellington temperature yesterday

Maximum temperature yesterday: 54 °F (at 1:00 PM)
Minimum temperature yesterday: 46 °F (at 2:00 AM)
Average temperature yesterday: 50 °F

Past Weeks' High & Low Weather Summary

 TemperatureHumidityPressure
High59 °F (Jul 16, 12:00 PM)100% (Jul 16, 3:00 AM)30.57 "Hg (Jul 16, 3:00 AM)
Low37 °F (Jul 25, 5:30 AM)41% (Jul 21, 2:00 PM)29.18 "Hg (Jul 18, 5:00 PM)
Average51 °F77%30.03 "Hg
* Reported Jul 15 5:00 AM — Jul 30 5:30 AM, Wellington, Weather by CustomWeather, © 2015

Note: Actual official high and low records may vary slightly from our data, if they occured in-between our weather recording intervals... More about our weather records

Advertising

Wellington weather history for previous 24 hours

 ConditionsComfort  
Time TempWeatherWind HumidityBarometerVisibility
5:30 AM
Thu, Jul 30
46 °FPartly cloudy.23 mph71%30.21 "Hg6 mi
5:00 AM45 °FSprinkles. Partly cloudy.25 mph81%30.21 "HgN/A
4:30 AM46 °FPassing clouds.26 mph66%30.18 "Hg5 mi
4:00 AM46 °FMostly cloudy.28 mph71%30.18 "Hg5 mi
3:30 AM45 °FSprinkles. Mostly cloudy.29 mph81%30.21 "Hg5 mi
3:00 AM48 °FPassing clouds.26 mph71%30.18 "Hg5 mi
2:30 AM46 °FSprinkles. Partly cloudy.31 mph76%30.21 "Hg4 mi
2:00 AM45 °FSprinkles. Partly cloudy.29 mph81%30.18 "Hg2 mi
1:30 AM46 °FPassing clouds.33 mph71%30.18 "Hg4 mi
1:00 AM46 °FSprinkles. Partly cloudy.31 mph76%30.18 "Hg4 mi
12:30 AM46 °FPassing clouds.35 mph76%30.15 "Hg4 mi
12:00 AM46 °FSprinkles. Passing clouds.37 mph76%30.15 "Hg4 mi
11:30 PM
Wed, Jul 29
48 °FPassing clouds.37 mph58%30.15 "Hg5 mi
11:00 PM48 °FSprinkles. Partly cloudy.33 mph66%30.15 "Hg4 mi
10:30 PM46 °FMostly cloudy.30 mph76%30.15 "HgN/A
10:00 PM46 °FSprinkles. Passing clouds.35 mph76%30.12 "Hg3 mi
9:30 PM46 °FRain showers. Passing clouds.38 mph76%30.12 "Hg3 mi
9:00 PM48 °FPartly cloudy.35 mph76%30.09 "HgN/A
8:30 PM48 °FPartly cloudy.33 mph76%30.09 "Hg5 mi
7:30 PM50 °FPartly cloudy.35 mph67%30.07 "HgN/A
7:00 PM48 °FPartly cloudy.33 mph71%30.04 "Hg6 mi
6:30 PM50 °FMostly cloudy.32 mph67%30.01 "HgN/A
6:00 PM50 °FPartly cloudy.30 mph67%30.01 "HgN/A
5:30 PM50 °FPartly cloudy.29 mph71%29.98 "HgN/A
5:00 PM50 °FPassing clouds.28 mph76%29.95 "HgN/A
4:30 PM52 °FPassing clouds.28 mph67%29.95 "HgN/A
4:00 PM52 °FOvercast.26 mph62%29.95 "HgN/A
3:30 PM52 °FPartly sunny.24 mph67%29.92 "HgN/A
3:00 PM52 °FOvercast.24 mph67%29.92 "HgN/A
2:30 PM52 °FPartly sunny.26 mph72%29.89 "HgN/A
2:00 PM52 °FOvercast.22 mph67%29.89 "HgN/A
1:30 PM54 °FCloudy.21 mph67%29.89 "HgN/A
1:00 PM54 °FPassing clouds.15 mph67%29.89 "HgN/A
12:30 PM52 °FCool.14 mph67%29.89 "HgN/A
12:00 PM52 °FCool.16 mph67%29.89 "HgN/A
11:30 AM52 °FCool.20 mph67%29.89 "HgN/A
11:00 AM52 °FCool.20 mph72%29.89 "HgN/A
10:30 AM52 °FCool.21 mph67%29.86 "HgN/A
9:00 AM50 °FMostly cloudy.25 mph71%29.83 "HgN/A
8:30 AM50 °FBroken clouds.25 mph76%29.80 "HgN/A
8:00 AM50 °FMostly cloudy.25 mph76%29.80 "HgN/A
7:30 AM50 °FCloudy.25 mph76%29.77 "HgN/A
7:00 AM50 °FBroken clouds.23 mph82%29.74 "HgN/A
6:30 AM50 °FMostly cloudy.24 mph82%29.74 "HgN/A
6:00 AM50 °FPassing clouds.25 mph82%29.71 "HgN/A
Weather by CustomWeather, © 2015

See weather overviewHow to use our weather pages